Time,TemperatureF,DewpointF,PressureIn,WindDirection,WindDirectionDegrees,WindSpeedMPH,WindSpeedGustMPH,Humidity,HourlyPrecipIn,Conditions,Clouds,dailyrainin,SoftwareType,DateUTC
2013-01-20 00:01:00,41.0,36.8,30.18,SSW,202,6.0,10.0,85,0.00,,,0.00,Weather View 32 v70,2013-01-20 05:01:00,
2013-01-20 00:03:00,42.0,37.8,30.18,SW,225,2.0,10.0,85,0.00,,,0.00,Weather View 32 v70,2013-01-20 05:03:00,
2013-01-20 00:08:00,42.0,37.8,30.18,SSW,202,6.0,10.0,85,0.00,,,0.00,Weather View 32 v70,2013-01-20 05:08:00,
2013-01-20 00:13:00,41.0,37.1,30.18,SW,225,4.0,10.0,86,0.00,,,0.00,Weather View 32 v70,2013-01-20 05:13:00,
2013-01-20 00:18:00,41.0,37.7,30.18,SW,225,4.0,10.0,88,0.00,,,0.00,Weather View 32 v70,2013-01-20 05:18:00,
2013-01-20 00:23:00,41.0,37.7,30.18,SSW,202,4.0,10.0,88,0.00,,,0.00,Weather View 32 v70,2013-01-20 05:23:00,
2013-01-20 00:28:00,41.0,37.7,30.18,SSW,202,5.0,10.0,88,0.00,,,0.00,Weather View 32 v70,2013-01-20 05:28:00,
2013-01-20 00:33:00,41.0,37.7,30.18,SW,225,3.0,10.0,88,0.00,,,0.00,Weather View 32 v70,2013-01-20 05:33:00,
2013-01-20 00:38:00,41.0,38.0,30.18,SW,225,3.0,10.0,89,0.00,,,0.00,Weather View 32 v70,2013-01-20 05:38:00,
2013-01-20 00:43:00,41.0,38.0,30.18,SSW,202,4.0,9.0,89,0.00,,,0.00,Weather View 32 v70,2013-01-20 05:43:00,
2013-01-20 00:48:00,41.0,38.3,30.17,SSW,202,4.0,9.0,90,0.00,,,0.00,Weather View 32 v70,2013-01-20 05:48:00,
2013-01-20 00:53:00,41.0,38.0,30.17,SSW,202,2.0,9.0,89,0.00,,,0.00,Weather View 32 v70,2013-01-20 05:53:00,
2013-01-20 00:58:00,41.0,38.0,30.16,SW,225,2.0,9.0,89,0.00,,,0.00,Weather View 32 v70,2013-01-20 05:58:00,
2013-01-20 01:03:00,41.0,38.0,30.16,SW,225,4.0,9.0,89,0.00,,,0.00,Weather View 32 v70,2013-01-20 06:03:00,
2013-01-20 01:08:00,41.0,38.0,30.15,SW,225,6.0,9.0,89,0.00,,,0.00,Weather View 32 v70,2013-01-20 06:08:00,
2013-01-20 01:13:00,42.0,38.7,30.15,SSW,202,4.0,10.0,88,0.00,,,0.00,Weather View 32 v70,2013-01-20 06:13:00,
2013-01-20 01:18:00,42.0,39.0,30.14,SW,225,3.0,10.0,89,0.00,,,0.00,Weather View 32 v70,2013-01-20 06:18:00,
2013-01-20 01:23:00,42.0,39.3,30.14,SSW,202,3.0,10.0,90,0.00,,,0.00,Weather View 32 v70,2013-01-20 06:23:00,
2013-01-20 01:28:00,41.0,38.0,30.14,SSW,202,7.0,10.0,89,0.00,,,0.00,Weather View 32 v70,2013-01-20 06:28:00,
2013-01-20 01:33:00,41.0,38.3,30.14,SW,225,4.0,10.0,90,0.00,,,0.00,Weather View 32 v70,2013-01-20 06:33:00,
2013-01-20 01:38:00,41.0,38.3,30.14,SW,225,4.0,10.0,90,0.00,,,0.00,Weather View 32 v70,2013-01-20 06:38:00,
2013-01-20 01:43:00,41.0,38.3,30.14,SW,225,6.0,10.0,90,0.00,,,0.00,Weather View 32 v70,2013-01-20 06:43:00,
2013-01-20 01:48:00,41.0,38.0,30.14,SSW,202,6.0,10.0,89,0.00,,,0.00,Weather View 32 v70,2013-01-20 06:48:00,
2013-01-20 01:53:00,42.0,38.7,30.14,SSW,202,8.0,10.0,88,0.00,,,0.00,Weather View 32 v70,2013-01-20 06:53:00,
2013-01-20 01:58:00,42.0,38.4,30.12,SW,225,6.0,10.0,87,0.00,,,0.00,Weather View 32 v70,2013-01-20 06:58:00,
2013-01-20 02:03:00,42.0,38.1,30.12,SSW,202,5.0,10.0,86,0.00,,,0.00,Weather View 32 v70,2013-01-20 07:03:00,
2013-01-20 02:08:00,42.0,38.1,30.12,SSW,202,5.0,10.0,86,0.00,,,0.00,Weather View 32 v70,2013-01-20 07:08:00,
2013-01-20 02:13:00,42.0,38.1,30.12,SSW,202,6.0,10.0,86,0.00,,,0.00,Weather View 32 v70,2013-01-20 07:13:00,
2013-01-20 02:18:00,42.0,38.1,30.12,SSW,202,7.0,10.0,86,0.00,,,0.00,Weather View 32 v70,2013-01-20 07:18:00,
2013-01-20 02:23:00,42.0,38.1,30.12,SSW,202,3.0,10.0,86,0.00,,,0.00,Weather View 32 v70,2013-01-20 07:23:00,
2013-01-20 02:28:00,42.0,38.7,30.12,South,180,5.0,10.0,88,0.00,,,0.00,Weather View 32 v70,2013-01-20 07:28:00,
2013-01-20 02:33:00,42.0,38.7,30.12,SSW,202,4.0,10.0,88,0.00,,,0.00,Weather View 32 v70,2013-01-20 07:33:00,
2013-01-20 02:38:00,41.0,37.7,30.11,SW,225,4.0,10.0,88,0.00,,,0.00,Weather View 32 v70,2013-01-20 07:38:00,
2013-01-20 02:43:00,41.0,37.7,30.11,SW,225,8.0,10.0,88,0.00,,,0.00,Weather View 32 v70,2013-01-20 07:43:00,
2013-01-20 02:48:00,41.0,37.7,30.11,SSW,202,8.0,10.0,88,0.00,,,0.00,Weather View 32 v70,2013-01-20 07:48:00,
2013-01-20 02:53:00,41.0,37.7,30.11,SSW,202,4.0,9.0,88,0.00,,,0.00,Weather View 32 v70,2013-01-20 07:53:00,
2013-01-20 02:58:00,41.0,37.7,30.10,SW,225,5.0,9.0,88,0.00,,,0.00,Weather View 32 v70,2013-01-20 07:58:00,
2013-01-20 03:03:00,42.0,38.7,30.10,SSW,202,6.0,9.0,88,0.00,,,0.00,Weather View 32 v70,2013-01-20 08:03:00,
2013-01-20 03:08:00,42.0,38.7,30.09,SW,225,2.0,9.0,88,0.00,,,0.00,Weather View 32 v70,2013-01-20 08:08:00,
2013-01-20 03:13:00,42.0,38.7,30.09,WSW,247,3.0,9.0,88,0.00,,,0.00,Weather View 32 v70,2013-01-20 08:13:00,
2013-01-20 03:18:00,41.0,38.0,30.08,SSW,202,6.0,9.0,89,0.00,,,0.00,Weather View 32 v70,2013-01-20 08:18:00,
2013-01-20 03:23:00,41.0,38.0,30.08,SW,225,2.0,10.0,89,0.00,,,0.00,Weather View 32 v70,2013-01-20 08:23:00,
2013-01-20 03:28:00,41.0,38.0,30.08,SSW,202,6.0,10.0,89,0.00,,,0.00,Weather View 32 v70,2013-01-20 08:28:00,
2013-01-20 03:33:00,41.0,38.3,30.08,SW,225,4.0,10.0,90,0.00,,,0.00,Weather View 32 v70,2013-01-20 08:33:00,
2013-01-20 03:38:00,41.0,38.3,30.09,SSW,202,6.0,10.0,90,0.00,,,0.00,Weather View 32 v70,2013-01-20 08:38:00,
2013-01-20 03:43:00,41.0,38.3,30.09,SSW,202,2.0,10.0,90,0.00,,,0.00,Weather View 32 v70,2013-01-20 08:43:00,
2013-01-20 03:48:00,41.0,38.0,30.09,SSW,202,2.0,10.0,89,0.00,,,0.00,Weather View 32 v70,2013-01-20 08:48:00,
2013-01-20 03:53:00,40.0,37.0,30.09,SW,225,2.0,10.0,89,0.00,,,0.00,Weather View 32 v70,2013-01-20 08:53:00,
2013-01-20 03:58:00,40.0,37.0,30.09,SSW,202,3.0,10.0,89,0.00,,,0.00,Weather View 32 v70,2013-01-20 08:58:00,
2013-01-20 04:03:00,40.0,37.0,30.09,SSW,202,4.0,10.0,89,0.00,,,0.00,Weather View 32 v70,2013-01-20 09:03:00,
2013-01-20 04:08:00,41.0,38.0,30.08,SW,225,4.0,10.0,89,0.00,,,0.00,Weather View 32 v70,2013-01-20 09:08:00,
2013-01-20 04:13:00,41.0,38.3,30.08,SSW,202,4.0,10.0,90,0.00,,,0.00,Weather View 32 v70,2013-01-20 09:13:00,
2013-01-20 04:18:00,40.0,37.6,30.07,SSW,202,5.0,10.0,91,0.00,,,0.00,Weather View 32 v70,2013-01-20 09:18:00,
2013-01-20 04:23:00,40.0,37.9,30.07,SW,225,6.0,9.0,92,0.00,,,0.00,Weather View 32 v70,2013-01-20 09:23:00,
2013-01-20 04:28:00,40.0,37.9,30.08,SW,225,3.0,9.0,92,0.00,,,0.00,Weather View 32 v70,2013-01-20 09:28:00,
2013-01-20 04:33:00,40.0,37.9,30.08,SW,225,6.0,9.0,92,0.00,,,0.00,Weather View 32 v70,2013-01-20 09:33:00,
2013-01-20 04:39:00,40.0,37.9,30.07,SSW,202,4.0,9.0,92,0.00,,,0.00,Weather View 32 v70,2013-01-20 09:39:00,
2013-01-20 04:44:00,41.0,38.6,30.07,SW,225,4.0,8.0,91,0.00,,,0.00,Weather View 32 v70,2013-01-20 09:44:00,
2013-01-20 04:49:00,41.0,38.3,30.06,SW,225,6.0,8.0,90,0.00,,,0.00,Weather View 32 v70,2013-01-20 09:49:00,
2013-01-20 04:54:00,41.0,38.3,30.06,SW,225,5.0,8.0,90,0.00,,,0.00,Weather View 32 v70,2013-01-20 09:54:00,
2013-01-20 04:59:00,41.0,38.3,30.06,SSW,202,4.0,9.0,90,0.00,,,0.00,Weather View 32 v70,2013-01-20 09:59:00,
2013-01-20 05:04:00,41.0,38.3,30.06,SW,225,6.0,9.0,90,0.00,,,0.00,Weather View 32 v70,2013-01-20 10:04:00,
2013-01-20 05:09:00,41.0,38.3,30.05,SSW,202,7.0,9.0,90,0.00,,,0.00,Weather View 32 v70,2013-01-20 10:09:00,
2013-01-20 05:14:00,41.0,38.3,30.05,SSW,202,3.0,9.0,90,0.00,,,0.00,Weather View 32 v70,2013-01-20 10:14:00,
2013-01-20 05:19:00,41.0,38.0,30.04,South,180,7.0,9.0,89,0.00,,,0.00,Weather View 32 v70,2013-01-20 10:19:00,
2013-01-20 05:24:00,41.0,38.0,30.04,SSW,202,7.0,9.0,89,0.00,,,0.00,Weather View 32 v70,2013-01-20 10:24:00,
2013-01-20 05:29:00,41.0,37.4,30.04,SW,225,3.0,10.0,87,0.00,,,0.00,Weather View 32 v70,2013-01-20 10:29:00,
2013-01-20 05:34:00,41.0,37.1,30.04,SSW,202,8.0,10.0,86,0.00,,,0.00,Weather View 32 v70,2013-01-20 10:34:00,
2013-01-20 05:39:00,41.0,36.8,30.03,SSW,202,6.0,10.0,85,0.00,,,0.00,Weather View 32 v70,2013-01-20 10:39:00,
2013-01-20 05:44:00,41.0,36.8,30.03,SSW,202,6.0,10.0,85,0.00,,,0.00,Weather View 32 v70,2013-01-20 10:44:00,
2013-01-20 05:49:00,41.0,36.2,30.01,SW,225,7.0,10.0,83,0.00,,,0.00,Weather View 32 v70,2013-01-20 10:49:00,
2013-01-20 05:54:00,41.0,36.2,30.01,SSW,202,3.0,10.0,83,0.00,,,0.00,Weather View 32 v70,2013-01-20 10:54:00,
2013-01-20 05:59:00,42.0,37.2,30.01,SW,225,7.0,10.0,83,0.00,,,0.00,Weather View 32 v70,2013-01-20 10:59:00,
2013-01-20 06:04:00,41.0,36.2,30.01,SW,225,6.0,10.0,83,0.00,,,0.00,Weather View 32 v70,2013-01-20 11:04:00,
2013-01-20 06:09:00,41.0,36.2,30.01,SW,225,7.0,10.0,83,0.00,,,0.00,Weather View 32 v70,2013-01-20 11:09:00,
2013-01-20 06:14:00,41.0,36.2,30.01,SSW,202,4.0,10.0,83,0.00,,,0.00,Weather View 32 v70,2013-01-20 11:14:00,
2013-01-20 06:19:00,41.0,36.2,30.01,SSW,202,5.0,10.0,83,0.00,,,0.00,Weather View 32 v70,2013-01-20 11:19:00,
2013-01-20 06:24:00,41.0,36.2,30.01,SSW,202,3.0,10.0,83,0.00,,,0.00,Weather View 32 v70,2013-01-20 11:24:00,
2013-01-20 06:29:00,41.0,36.2,30.00,WSW,247,6.0,10.0,83,0.00,,,0.00,Weather View 32 v70,2013-01-20 11:29:00,
2013-01-20 06:34:00,41.0,36.5,30.00,SSW,202,6.0,10.0,84,0.00,,,0.00,Weather View 32 v70,2013-01-20 11:34:00,
2013-01-20 06:39:00,41.0,36.8,30.00,SSW,202,5.0,10.0,85,0.00,,,0.00,Weather View 32 v70,2013-01-20 11:39:00,
2013-01-20 06:44:00,41.0,36.8,30.00,SW,225,6.0,10.0,85,0.00,,,0.00,Weather View 32 v70,2013-01-20 11:44:00,
2013-01-20 06:49:00,41.0,36.8,30.00,SSW,202,2.0,10.0,85,0.00,,,0.00,Weather View 32 v70,2013-01-20 11:49:00,
2013-01-20 06:54:00,41.0,37.4,30.00,SW,225,2.0,10.0,87,0.00,,,0.00,Weather View 32 v70,2013-01-20 11:54:00,
2013-01-20 06:59:00,40.0,36.4,30.00,SSW,202,6.0,9.0,87,0.00,,,0.00,Weather View 32 v70,2013-01-20 11:59:00,
2013-01-20 07:04:00,40.0,36.4,30.00,WSW,247,1.0,9.0,87,0.00,,,0.00,Weather View 32 v70,2013-01-20 12:04:00,
2013-01-20 07:09:00,40.0,36.4,30.00,SW,225,9.0,9.0,87,0.00,,,0.00,Weather View 32 v70,2013-01-20 12:09:00,
2013-01-20 07:14:00,40.0,36.7,30.00,SSW,202,5.0,9.0,88,0.00,,,0.00,Weather View 32 v70,2013-01-20 12:14:00,
2013-01-20 07:19:00,40.0,36.4,30.00,SSW,202,6.0,9.0,87,0.00,,,0.00,Weather View 32 v70,2013-01-20 12:19:00,
2013-01-20 07:24:00,40.0,36.4,30.00,SW,225,4.0,9.0,87,0.00,,,0.00,Weather View 32 v70,2013-01-20 12:24:00,
2013-01-20 07:29:00,41.0,37.1,29.99,SW,225,3.0,9.0,86,0.00,,,0.00,Weather View 32 v70,2013-01-20 12:29:00,
2013-01-20 07:34:00,40.0,36.7,29.99,SW,225,5.0,9.0,88,0.00,,,0.00,Weather View 32 v70,2013-01-20 12:34:00,
2013-01-20 07:39:00,40.0,36.7,29.99,SSW,202,1.0,9.0,88,0.00,,,0.00,Weather View 32 v70,2013-01-20 12:39:00,
2013-01-20 07:44:00,41.0,37.7,29.99,SW,225,5.0,9.0,88,0.00,,,0.00,Weather View 32 v70,2013-01-20 12:44:00,
2013-01-20 07:49:00,41.0,37.4,29.98,SSW,202,7.0,10.0,87,0.00,,,0.00,Weather View 32 v70,2013-01-20 12:49:00,
2013-01-20 07:54:00,41.0,37.7,29.98,SW,225,3.0,10.0,88,0.00,,,0.00,Weather View 32 v70,2013-01-20 12:54:00,
2013-01-20 07:59:00,41.0,37.7,29.98,SSW,202,6.0,12.0,88,0.00,,,0.00,Weather View 32 v70,2013-01-20 12:59:00,
2013-01-20 08:04:00,41.0,37.1,29.98,SW,225,6.0,12.0,86,0.00,,,0.00,Weather View 32 v70,2013-01-20 13:04:00,
2013-01-20 08:09:00,41.0,36.8,29.98,SSW,202,10.0,12.0,85,0.00,,,0.00,Weather View 32 v70,2013-01-20 13:09:00,
2013-01-20 08:14:00,41.0,36.8,29.98,SW,225,10.0,12.0,85,0.00,,,0.00,Weather View 32 v70,2013-01-20 13:14:00,
2013-01-20 08:19:00,41.0,37.1,29.98,SSW,202,7.0,12.0,86,0.00,,,0.00,Weather View 32 v70,2013-01-20 13:19:00,
2013-01-20 08:24:00,41.0,36.8,29.98,SW,225,3.0,12.0,85,0.00,,,0.00,Weather View 32 v70,2013-01-20 13:24:00,
2013-01-20 08:29:00,41.0,36.8,29.98,SSW,202,2.0,12.0,85,0.00,,,0.00,Weather View 32 v70,2013-01-20 13:29:00,
2013-01-20 08:34:00,42.0,37.5,29.98,SSW,202,7.0,12.0,84,0.00,,,0.00,Weather View 32 v70,2013-01-20 13:34:00,
2013-01-20 08:39:00,42.0,37.2,29.97,SSW,202,6.0,12.0,83,0.00,,,0.00,Weather View 32 v70,2013-01-20 13:39:00,
2013-01-20 08:44:00,42.0,37.2,29.97,SSW,202,7.0,12.0,83,0.00,,,0.00,Weather View 32 v70,2013-01-20 13:44:00,
2013-01-20 08:49:00,42.0,37.2,29.97,SW,225,5.0,12.0,83,0.00,,,0.00,Weather View 32 v70,2013-01-20 13:49:00,
2013-01-20 08:54:00,42.0,36.6,29.97,SSW,202,4.0,12.0,81,0.00,,,0.00,Weather View 32 v70,2013-01-20 13:54:00,
2013-01-20 08:59:00,43.0,37.6,29.97,SSW,202,7.0,12.0,81,0.00,,,0.00,Weather View 32 v70,2013-01-20 13:59:00,
2013-01-20 09:04:00,44.0,37.6,29.97,South,180,3.0,12.0,78,0.00,,,0.00,Weather View 32 v70,2013-01-20 14:04:00,
2013-01-20 09:09:00,44.0,37.2,29.97,SSW,202,8.0,13.0,77,0.00,,,0.00,Weather View 32 v70,2013-01-20 14:09:00,
2013-01-20 09:14:00,44.0,37.2,29.97,SW,225,2.0,13.0,77,0.00,,,0.00,Weather View 32 v70,2013-01-20 14:14:00,
2013-01-20 09:19:00,45.0,37.9,29.97,SW,225,6.0,13.0,76,0.00,,,0.00,Weather View 32 v70,2013-01-20 14:19:00,
2013-01-20 09:24:00,45.0,37.5,29.97,SW,225,2.0,13.0,75,0.00,,,0.00,Weather View 32 v70,2013-01-20 14:24:00,
2013-01-20 09:29:00,46.0,37.8,29.96,SW,225,3.0,13.0,73,0.00,,,0.00,Weather View 32 v70,2013-01-20 14:29:00,
2013-01-20 09:34:00,46.0,36.8,29.96,SW,225,3.0,13.0,70,0.00,,,0.00,Weather View 32 v70,2013-01-20 14:34:00,
2013-01-20 09:40:00,46.0,36.8,29.96,SSW,202,2.0,13.0,70,0.00,,,0.00,Weather View 32 v70,2013-01-20 14:40:00,
2013-01-20 09:45:00,46.0,36.8,29.96,WSW,247,2.0,14.0,70,0.00,,,0.00,Weather View 32 v70,2013-01-20 14:45:00,
2013-01-20 09:50:00,46.0,36.0,29.96,SSW,202,7.0,14.0,68,0.00,,,0.00,Weather View 32 v70,2013-01-20 14:50:00,
2013-01-20 09:55:00,46.0,36.4,29.96,SSW,202,10.0,15.0,69,0.00,,,0.00,Weather View 32 v70,2013-01-20 14:55:00,
2013-01-20 10:00:00,47.0,37.0,29.96,SSW,202,6.0,15.0,68,0.01,,,0.00,Weather View 32 v70,2013-01-20 15:00:00,
2013-01-20 10:05:00,48.0,37.5,29.96,SSW,202,3.0,15.0,67,0.00,,,0.00,Weather View 32 v70,2013-01-20 15:05:00,
2013-01-20 10:10:00,48.0,36.8,29.95,WSW,247,6.0,15.0,65,0.00,,,0.00,Weather View 32 v70,2013-01-20 15:10:00,
2013-01-20 10:15:00,48.0,36.4,29.95,SSW,202,6.0,15.0,64,0.00,,,0.00,Weather View 32 v70,2013-01-20 15:15:00,
2013-01-20 10:20:00,49.0,37.7,29.95,SSW,202,4.0,15.0,65,0.00,,,0.00,Weather View 32 v70,2013-01-20 15:20:00,
2013-01-20 10:25:00,49.0,37.3,29.95,SSW,202,8.0,15.0,64,0.00,,,0.00,Weather View 32 v70,2013-01-20 15:25:00,
2013-01-20 10:30:00,49.0,36.9,29.95,SSW,202,8.0,15.0,63,0.00,,,0.00,Weather View 32 v70,2013-01-20 15:30:00,
2013-01-20 10:35:00,49.0,36.9,29.95,SW,225,4.0,15.0,63,0.00,,,0.00,Weather View 32 v70,2013-01-20 15:35:00,
2013-01-20 10:40:00,50.0,36.6,29.94,WSW,247,8.0,15.0,60,0.00,,,0.00,Weather View 32 v70,2013-01-20 15:40:00,
2013-01-20 10:45:00,50.0,36.6,29.94,SSW,202,6.0,15.0,60,0.00,,,0.00,Weather View 32 v70,2013-01-20 15:45:00,
2013-01-20 10:50:00,51.0,36.7,29.93,SW,225,3.0,15.0,58,0.00,,,0.00,Weather View 32 v70,2013-01-20 15:50:00,
2013-01-20 10:55:00,51.0,35.8,29.93,SSW,202,4.0,15.0,56,0.00,,,0.00,Weather View 32 v70,2013-01-20 15:55:00,
2013-01-20 11:00:00,51.0,34.9,29.92,SSW,202,14.0,15.0,54,0.00,,,0.00,Weather View 32 v70,2013-01-20 16:00:00,
2013-01-20 11:05:00,51.0,34.4,29.92,SW,225,6.0,15.0,53,0.00,,,0.00,Weather View 32 v70,2013-01-20 16:05:00,
2013-01-20 11:10:00,51.0,34.9,29.91,SSW,202,1.0,15.0,54,0.00,,,0.00,Weather View 32 v70,2013-01-20 16:10:00,
2013-01-20 11:15:00,52.0,35.8,29.91,WSW,247,1.0,15.0,54,0.00,,,0.00,Weather View 32 v70,2013-01-20 16:15:00,
2013-01-20 11:20:00,52.0,35.8,29.89,SSW,202,5.0,15.0,54,0.00,,,0.00,Weather View 32 v70,2013-01-20 16:20:00,
2013-01-20 11:25:00,52.0,35.8,29.89,SSW,202,4.0,15.0,54,0.00,,,0.00,Weather View 32 v70,2013-01-20 16:25:00,
2013-01-20 11:30:00,53.0,36.8,29.88,West,270,4.0,15.0,54,0.00,,,0.00,Weather View 32 v70,2013-01-20 16:30:00,
2013-01-20 11:35:00,53.0,36.3,29.88,SW,225,6.0,15.0,53,0.00,,,0.00,Weather View 32 v70,2013-01-20 16:35:00,
2013-01-20 11:40:00,53.0,35.8,29.87,SW,225,3.0,15.0,52,0.00,,,0.00,Weather View 32 v70,2013-01-20 16:40:00,
2013-01-20 11:45:00,53.0,36.8,29.87,NW,315,1.0,15.0,54,0.00,,,0.00,Weather View 32 v70,2013-01-20 16:45:00,
2013-01-20 11:50:00,53.0,36.8,29.87,South,180,4.0,15.0,54,0.00,,,0.00,Weather View 32 v70,2013-01-20 16:50:00,
2013-01-20 11:55:00,53.0,36.8,29.87,SSW,202,6.0,15.0,54,0.00,,,0.00,Weather View 32 v70,2013-01-20 16:55:00,
2013-01-20 12:00:00,52.0,36.8,29.86,WSW,247,5.0,15.0,56,0.00,,,0.00,Weather View 32 v70,2013-01-20 17:00:00,
2013-01-20 12:05:00,52.0,36.8,29.87,West,270,4.0,15.0,56,0.00,,,0.00,Weather View 32 v70,2013-01-20 17:05:00,
2013-01-20 12:10:00,52.0,37.7,29.87,SSW,202,5.0,15.0,58,0.00,,,0.00,Weather View 32 v70,2013-01-20 17:10:00,
2013-01-20 12:15:00,52.0,37.7,29.86,WSW,247,1.0,15.0,58,0.00,,,0.00,Weather View 32 v70,2013-01-20 17:15:00,
2013-01-20 12:20:00,52.0,37.7,29.86,WNW,292,2.0,15.0,58,0.00,,,0.00,Weather View 32 v70,2013-01-20 17:20:00,
2013-01-20 12:25:00,53.0,36.3,29.85,West,270,4.0,15.0,53,0.00,,,0.00,Weather View 32 v70,2013-01-20 17:25:00,
2013-01-20 12:30:00,53.0,34.3,29.85,SW,225,7.0,15.0,49,0.00,,,0.00,Weather View 32 v70,2013-01-20 17:30:00,
2013-01-20 12:35:00,53.0,34.3,29.85,SSW,202,6.0,15.0,49,0.00,,,0.00,Weather View 32 v70,2013-01-20 17:35:00,
2013-01-20 12:40:00,54.0,34.7,29.85,SSW,202,2.0,15.0,48,0.00,,,0.00,Weather View 32 v70,2013-01-20 17:40:00,
2013-01-20 12:45:00,54.0,35.2,29.83,SW,225,7.0,20.0,49,0.00,,,0.00,Weather View 32 v70,2013-01-20 17:45:00,
2013-01-20 12:50:00,53.0,34.8,29.83,SW,225,6.0,20.0,50,0.00,,,0.00,Weather View 32 v70,2013-01-20 17:50:00,
2013-01-20 12:55:00,53.0,34.8,29.84,SSW,202,7.0,20.0,50,0.00,,,0.00,Weather View 32 v70,2013-01-20 17:55:00,
2013-01-20 13:00:00,53.0,35.3,29.84,West,270,6.0,20.0,51,0.00,,,0.00,Weather View 32 v70,2013-01-20 18:00:00,
2013-01-20 13:05:00,54.0,35.2,29.83,SW,225,6.0,20.0,49,0.00,,,0.00,Weather View 32 v70,2013-01-20 18:05:00,
2013-01-20 13:10:00,54.0,35.2,29.83,West,270,6.0,20.0,49,0.00,,,0.00,Weather View 32 v70,2013-01-20 18:10:00,
2013-01-20 13:15:00,54.0,34.2,29.83,West,270,4.0,20.0,47,0.00,,,0.00,Weather View 32 v70,2013-01-20 18:15:00,
2013-01-20 13:20:00,54.0,34.2,29.83,West,270,6.0,20.0,47,0.00,,,0.00,Weather View 32 v70,2013-01-20 18:20:00,
2013-01-20 13:25:00,54.0,34.7,29.83,WSW,247,5.0,20.0,48,0.00,,,0.00,Weather View 32 v70,2013-01-20 18:25:00,
2013-01-20 13:30:00,53.0,35.3,29.83,SSW,202,4.0,20.0,51,0.00,,,0.00,Weather View 32 v70,2013-01-20 18:30:00,
2013-01-20 13:35:00,53.0,35.3,29.84,WNW,292,4.0,20.0,51,0.00,,,0.00,Weather View 32 v70,2013-01-20 18:35:00,
2013-01-20 13:40:00,52.0,34.9,29.84,WSW,247,10.0,20.0,52,0.00,,,0.00,Weather View 32 v70,2013-01-20 18:40:00,
2013-01-20 13:45:00,52.0,34.9,29.84,WNW,292,2.0,17.0,52,0.00,,,0.00,Weather View 32 v70,2013-01-20 18:45:00,
2013-01-20 13:50:00,51.0,34.0,29.84,SSW,202,9.0,20.0,52,0.00,,,0.00,Weather View 32 v70,2013-01-20 18:50:00,
2013-01-20 13:55:00,51.0,34.0,29.85,SSW,202,6.0,20.0,52,0.00,,,0.00,Weather View 32 v70,2013-01-20 18:55:00,
2013-01-20 14:00:00,51.0,34.4,29.85,SSW,202,4.0,20.0,53,0.00,,,0.00,Weather View 32 v70,2013-01-20 19:00:00,
2013-01-20 14:05:00,51.0,34.4,29.85,SSW,202,3.0,20.0,53,0.00,,,0.00,Weather View 32 v70,2013-01-20 19:05:00,
2013-01-20 14:10:00,50.0,33.5,29.85,WSW,247,5.0,20.0,53,0.00,,,0.00,Weather View 32 v70,2013-01-20 19:10:00,
2013-01-20 14:15:00,50.0,34.0,29.86,NNW,337,5.0,20.0,54,0.00,,,0.00,Weather View 32 v70,2013-01-20 19:15:00,
2013-01-20 14:20:00,50.0,34.4,29.86,WNW,292,2.0,20.0,55,0.00,,,0.00,Weather View 32 v70,2013-01-20 19:20:00,
2013-01-20 14:25:00,50.0,34.9,29.86,WSW,247,1.0,20.0,56,0.00,,,0.00,Weather View 32 v70,2013-01-20 19:25:00,
2013-01-20 14:30:00,50.0,34.9,29.86,SSW,202,7.0,20.0,56,0.00,,,0.00,Weather View 32 v70,2013-01-20 19:30:00,
2013-01-20 14:35:00,50.0,35.3,29.87,SSW,202,6.0,20.0,57,0.00,,,0.00,Weather View 32 v70,2013-01-20 19:35:00,
2013-01-20 14:40:00,50.0,34.4,29.87,NNW,337,2.0,20.0,55,0.00,,,0.00,Weather View 32 v70,2013-01-20 19:40:00,
2013-01-20 14:45:00,50.0,34.4,29.87,SSW,202,1.0,20.0,55,0.00,,,0.00,Weather View 32 v70,2013-01-20 19:45:00,
2013-01-20 14:50:00,49.0,33.5,29.87,WSW,247,2.0,19.0,55,0.00,,,0.00,Weather View 32 v70,2013-01-20 19:50:00,
2013-01-20 14:55:00,49.0,33.5,29.88,SW,225,1.0,19.0,55,0.00,,,0.00,Weather View 32 v70,2013-01-20 19:55:00,
2013-01-20 15:00:00,49.0,33.5,29.88,NNW,337,3.0,19.0,55,0.00,,,0.00,Weather View 32 v70,2013-01-20 20:00:00,
2013-01-20 15:05:00,49.0,33.5,29.89,SSW,202,2.0,15.0,55,0.00,,,0.00,Weather View 32 v70,2013-01-20 20:05:00,
2013-01-20 15:10:00,49.0,32.6,29.89,NW,315,5.0,15.0,53,0.00,,,0.00,Weather View 32 v70,2013-01-20 20:10:00,
2013-01-20 15:15:00,49.0,32.1,29.89,SW,225,5.0,15.0,52,0.00,,,0.00,Weather View 32 v70,2013-01-20 20:15:00,
2013-01-20 15:20:00,49.0,32.1,29.89,SW,225,4.0,15.0,52,0.00,,,0.00,Weather View 32 v70,2013-01-20 20:20:00,
2013-01-20 15:25:00,49.0,32.1,29.90,SW,225,5.0,15.0,52,0.00,,,0.00,Weather View 32 v70,2013-01-20 20:25:00,
2013-01-20 15:30:00,49.0,32.6,29.90,South,180,1.0,15.0,53,0.00,,,0.00,Weather View 32 v70,2013-01-20 20:30:00,
2013-01-20 15:35:00,49.0,32.1,29.90,WSW,247,2.0,13.0,52,0.00,,,0.00,Weather View 32 v70,2013-01-20 20:35:00,
2013-01-20 15:40:00,49.0,32.1,29.90,SW,225,2.0,13.0,52,0.00,,,0.00,Weather View 32 v70,2013-01-20 20:40:00,
2013-01-20 15:45:00,49.0,31.6,29.90,SW,225,3.0,13.0,51,0.00,,,0.00,Weather View 32 v70,2013-01-20 20:45:00,
2013-01-20 15:50:00,48.0,31.2,29.90,SW,225,4.0,10.0,52,0.00,,,0.00,Weather View 32 v70,2013-01-20 20:50:00,
2013-01-20 15:55:00,49.0,31.1,29.91,WSW,247,5.0,10.0,50,0.00,,,0.00,Weather View 32 v70,2013-01-20 20:55:00,
2013-01-20 16:00:00,49.0,31.1,29.91,WSW,247,1.0,10.0,50,0.00,,,0.00,Weather View 32 v70,2013-01-20 21:00:00,
2013-01-20 16:05:00,49.0,31.1,29.91,WSW,247,3.0,10.0,50,0.00,,,0.00,Weather View 32 v70,2013-01-20 21:05:00,
2013-01-20 16:10:00,48.0,31.7,29.91,WSW,247,5.0,10.0,53,0.00,,,0.00,Weather View 32 v70,2013-01-20 21:10:00,
2013-01-20 16:15:00,48.0,32.1,29.92,SW,225,1.0,10.0,54,0.00,,,0.00,Weather View 32 v70,2013-01-20 21:15:00,
2013-01-20 16:21:00,47.0,31.6,29.92,WSW,247,3.0,10.0,55,0.00,,,0.00,Weather View 32 v70,2013-01-20 21:21:00,
2013-01-20 16:26:00,47.0,32.5,29.92,WSW,247,1.0,10.0,57,0.00,,,0.00,Weather View 32 v70,2013-01-20 21:26:00,
2013-01-20 16:31:00,46.0,32.0,29.92,WSW,247,3.0,9.0,58,0.00,,,0.00,Weather View 32 v70,2013-01-20 21:31:00,
2013-01-20 16:36:00,47.0,32.5,29.92,WSW,247,5.0,9.0,57,0.00,,,0.00,Weather View 32 v70,2013-01-20 21:36:00,
2013-01-20 16:41:00,46.0,31.6,29.92,WSW,247,2.0,9.0,57,0.00,,,0.00,Weather View 32 v70,2013-01-20 21:41:00,
2013-01-20 16:46:00,46.0,31.2,29.94,WSW,247,4.0,9.0,56,0.00,,,0.00,Weather View 32 v70,2013-01-20 21:46:00,
2013-01-20 16:51:00,46.0,31.6,29.94,WSW,247,1.0,9.0,57,0.00,,,0.00,Weather View 32 v70,2013-01-20 21:51:00,
2013-01-20 16:56:00,46.0,31.6,29.95,SSW,202,2.0,9.0,57,0.00,,,0.00,Weather View 32 v70,2013-01-20 21:56:00,
2013-01-20 17:01:00,45.0,31.1,29.95,WSW,247,3.0,9.0,58,0.00,,,0.00,Weather View 32 v70,2013-01-20 22:01:00,
2013-01-20 17:06:00,45.0,31.1,29.96,SSW,202,4.0,9.0,58,0.00,,,0.00,Weather View 32 v70,2013-01-20 22:06:00,
2013-01-20 17:11:00,45.0,32.7,29.96,SW,225,2.0,9.0,62,0.00,,,0.00,Weather View 32 v70,2013-01-20 22:11:00,
2013-01-20 17:16:00,44.0,33.7,29.98,SW,225,5.0,9.0,67,0.00,,,0.00,Weather View 32 v70,2013-01-20 22:16:00,
2013-01-20 17:21:00,44.0,34.5,29.98,SW,225,0.0,8.0,69,0.00,,,0.00,Weather View 32 v70,2013-01-20 22:21:00,
2013-01-20 17:26:00,43.0,33.9,29.98,WNW,292,0.0,7.0,70,0.00,,,0.00,Weather View 32 v70,2013-01-20 22:26:00,
2013-01-20 17:31:00,44.0,25.0,29.98,NW,315,5.0,11.0,47,0.00,,,0.00,Weather View 32 v70,2013-01-20 22:31:00,
2013-01-20 17:36:00,45.0,22.7,29.98,NNW,337,5.0,11.0,41,0.00,,,0.00,Weather View 32 v70,2013-01-20 22:36:00,
2013-01-20 17:41:00,45.0,21.5,29.98,NNW,337,4.0,13.0,39,0.00,,,0.00,Weather View 32 v70,2013-01-20 22:41:00,
2013-01-20 17:46:00,46.0,23.0,29.99,WNW,292,2.0,13.0,40,0.00,,,0.00,Weather View 32 v70,2013-01-20 22:46:00,
2013-01-20 17:51:00,45.0,20.3,29.99,North,360,2.0,13.0,37,0.00,,,0.00,Weather View 32 v70,2013-01-20 22:51:00,
2013-01-20 17:56:00,46.0,19.8,29.99,NNW,337,9.0,13.0,35,0.00,,,0.00,Weather View 32 v70,2013-01-20 22:56:00,
2013-01-20 18:01:00,45.0,20.3,29.99,SSW,202,3.0,13.0,37,0.00,,,0.00,Weather View 32 v70,2013-01-20 23:01:00,
2013-01-20 18:06:00,45.0,20.9,30.00,NNW,337,3.0,13.0,38,0.00,,,0.00,Weather View 32 v70,2013-01-20 23:06:00,
2013-01-20 18:11:00,45.0,20.9,30.00,NNW,337,5.0,13.0,38,0.00,,,0.00,Weather View 32 v70,2013-01-20 23:11:00,
2013-01-20 18:16:00,45.0,19.0,30.01,NNE,22,1.0,13.0,35,0.00,,,0.00,Weather View 32 v70,2013-01-20 23:16:00,
2013-01-20 18:21:00,44.0,18.1,30.01,NNW,337,6.0,13.0,35,0.00,,,0.00,Weather View 32 v70,2013-01-20 23:21:00,
2013-01-20 18:27:00,44.0,18.1,30.03,SE,135,1.0,13.0,35,0.00,,,0.00,Weather View 32 v70,2013-01-20 23:27:00,
2013-01-20 18:32:00,44.0,18.1,30.03,NW,315,5.0,13.0,35,0.00,,,0.00,Weather View 32 v70,2013-01-20 23:32:00,
2013-01-20 18:37:00,44.0,17.4,30.04,SW,225,3.0,13.0,34,0.00,,,0.00,Weather View 32 v70,2013-01-20 23:37:00,
2013-01-20 18:42:00,43.0,16.5,30.04,WSW,247,5.0,13.0,34,0.00,,,0.00,Weather View 32 v70,2013-01-20 23:42:00,
2013-01-20 18:47:00,42.0,16.3,30.06,NNW,337,6.0,13.0,35,0.00,,,0.00,Weather View 32 v70,2013-01-20 23:47:00,
2013-01-20 18:52:00,41.0,16.7,30.06,NNW,337,9.0,13.0,37,0.00,,,0.00,Weather View 32 v70,2013-01-20 23:52:00,
2013-01-20 18:57:00,41.0,17.9,30.07,SSW,202,1.0,13.0,39,0.00,,,0.00,Weather View 32 v70,2013-01-20 23:57:00,
2013-01-20 19:02:00,40.0,16.4,30.07,NW,315,7.0,13.0,38,0.00,,,0.00,Weather View 32 v70,2013-01-21 00:02:00,
2013-01-20 19:07:00,40.0,18.2,30.08,NW,315,2.0,13.0,41,0.00,,,0.00,Weather View 32 v70,2013-01-21 00:07:00,
2013-01-20 19:12:00,40.0,17.6,30.08,NNW,337,5.0,13.0,40,0.00,,,0.00,Weather View 32 v70,2013-01-21 00:12:00,
2013-01-20 19:17:00,40.0,18.2,30.09,NNW,337,5.0,13.0,41,0.00,,,0.00,Weather View 32 v70,2013-01-21 00:17:00,
2013-01-20 19:22:00,39.0,17.3,30.09,NW,315,6.0,15.0,41,0.00,,,0.00,Weather View 32 v70,2013-01-21 00:22:00,
2013-01-20 19:27:00,39.0,17.8,30.10,NW,315,0.0,15.0,42,0.00,,,0.00,Weather View 32 v70,2013-01-21 00:27:00,
2013-01-20 19:32:00,38.0,17.5,30.10,NNW,337,3.0,15.0,43,0.00,,,0.00,Weather View 32 v70,2013-01-21 00:32:00,
2013-01-20 19:37:00,38.0,18.0,30.12,NNW,337,5.0,15.0,44,0.00,,,0.00,Weather View 32 v70,2013-01-21 00:37:00,
2013-01-20 19:42:00,37.0,17.6,30.12,NNW,337,1.0,15.0,45,0.00,,,0.00,Weather View 32 v70,2013-01-21 00:42:00,
2013-01-20 19:47:00,37.0,18.6,30.13,NNW,337,3.0,15.0,47,0.00,,,0.00,Weather View 32 v70,2013-01-21 00:47:00,
2013-01-20 19:52:00,37.0,18.1,30.13,NNW,337,4.0,15.0,46,0.00,,,0.00,Weather View 32 v70,2013-01-21 00:52:00,
2013-01-20 19:57:00,37.0,18.1,30.13,WNW,292,2.0,15.0,46,0.00,,,0.00,Weather View 32 v70,2013-01-21 00:57:00,
2013-01-20 20:02:00,36.0,17.2,30.13,NNW,337,10.0,15.0,46,0.00,,,0.00,Weather View 32 v70,2013-01-21 01:02:00,
2013-01-20 20:07:00,36.0,17.7,30.15,WSW,247,2.0,15.0,47,0.00,,,0.00,Weather View 32 v70,2013-01-21 01:07:00,
2013-01-20 20:12:00,36.0,17.7,30.15,NW,315,3.0,15.0,47,0.00,,,0.00,Weather View 32 v70,2013-01-21 01:12:00,
2013-01-20 20:17:00,36.0,17.7,30.15,NW,315,3.0,15.0,47,0.00,,,0.00,Weather View 32 v70,2013-01-21 01:17:00,
2013-01-20 20:23:00,36.0,18.2,30.15,NW,315,6.0,15.0,48,0.00,,,0.00,Weather View 32 v70,2013-01-21 01:23:00,
2013-01-20 20:28:00,35.0,17.3,30.16,NNW,337,2.0,15.0,48,0.00,,,0.00,Weather View 32 v70,2013-01-21 01:28:00,
2013-01-20 20:33:00,35.0,17.3,30.16,NW,315,6.0,13.0,48,0.00,,,0.00,Weather View 32 v70,2013-01-21 01:33:00,
2013-01-20 20:38:00,35.0,17.3,30.18,NNW,337,1.0,13.0,48,0.00,,,0.00,Weather View 32 v70,2013-01-21 01:38:00,
2013-01-20 20:43:00,35.0,17.8,30.18,NW,315,0.0,15.0,49,0.00,,,0.00,Weather View 32 v70,2013-01-21 01:43:00,
2013-01-20 20:48:00,35.0,17.8,30.18,NNW,337,1.0,15.0,49,0.00,,,0.00,Weather View 32 v70,2013-01-21 01:48:00,
2013-01-20 20:53:00,34.0,16.8,30.18,NW,315,5.0,15.0,49,0.00,,,0.00,Weather View 32 v70,2013-01-21 01:53:00,
2013-01-20 20:58:00,34.0,17.3,30.20,NNW,337,3.0,15.0,50,0.00,,,0.00,Weather View 32 v70,2013-01-21 01:58:00,
2013-01-20 21:03:00,34.0,16.8,30.20,NNE,22,2.0,15.0,49,0.00,,,0.00,Weather View 32 v70,2013-01-21 02:03:00,
2013-01-20 21:08:00,34.0,16.8,30.20,NNW,337,7.0,15.0,49,0.00,,,0.00,Weather View 32 v70,2013-01-21 02:08:00,
2013-01-20 21:13:00,34.0,16.8,30.20,West,270,2.0,15.0,49,0.00,,,0.00,Weather View 32 v70,2013-01-21 02:13:00,
2013-01-20 21:18:00,34.0,17.3,30.20,NNW,337,3.0,15.0,50,0.00,,,0.00,Weather View 32 v70,2013-01-21 02:18:00,
2013-01-20 21:23:00,33.0,16.8,30.20,WNW,292,2.0,15.0,51,0.00,,,0.00,Weather View 32 v70,2013-01-21 02:23:00,
2013-01-20 21:28:00,33.0,16.8,30.22,NNW,337,6.0,15.0,51,0.00,,,0.00,Weather View 32 v70,2013-01-21 02:28:00,
2013-01-20 21:33:00,33.0,16.8,30.22,NNW,337,6.0,15.0,51,0.00,,,0.00,Weather View 32 v70,2013-01-21 02:33:00,
2013-01-20 21:38:00,33.0,17.3,30.22,NNW,337,4.0,15.0,52,0.00,,,0.00,Weather View 32 v70,2013-01-21 02:38:00,
2013-01-20 21:43:00,32.0,16.8,30.22,WNW,292,2.0,13.0,53,0.00,,,0.00,Weather View 32 v70,2013-01-21 02:43:00,
2013-01-20 21:48:00,32.0,16.8,30.24,NNW,337,2.0,13.0,53,0.00,,,0.00,Weather View 32 v70,2013-01-21 02:48:00,
2013-01-20 21:53:00,32.0,16.8,30.24,NW,315,7.0,13.0,53,0.00,,,0.00,Weather View 32 v70,2013-01-21 02:53:00,
2013-01-20 21:58:00,32.0,16.8,30.24,NNW,337,1.0,13.0,53,0.00,,,0.00,Weather View 32 v70,2013-01-21 02:58:00,
2013-01-20 22:03:00,32.0,16.8,30.24,NNW,337,7.0,13.0,53,0.00,,,0.00,Weather View 32 v70,2013-01-21 03:03:00,
2013-01-20 22:08:00,32.0,16.8,30.24,NNW,337,2.0,13.0,53,0.00,,,0.00,Weather View 32 v70,2013-01-21 03:08:00,
2013-01-20 22:13:00,31.0,15.4,30.24,NW,315,6.0,12.0,52,0.00,,,0.00,Weather View 32 v70,2013-01-21 03:13:00,
2013-01-20 22:18:00,31.0,15.4,30.24,NNW,337,7.0,12.0,52,0.00,,,0.00,Weather View 32 v70,2013-01-21 03:18:00,
2013-01-20 22:23:00,31.0,15.9,30.24,NW,315,2.0,12.0,53,0.00,,,0.00,Weather View 32 v70,2013-01-21 03:23:00,
2013-01-20 22:28:00,31.0,15.9,30.25,NW,315,6.0,12.0,53,0.00,,,0.00,Weather View 32 v70,2013-01-21 03:28:00,
2013-01-20 22:33:00,31.0,15.9,30.25,NW,315,2.0,12.0,53,0.00,,,0.00,Weather View 32 v70,2013-01-21 03:33:00,
2013-01-20 22:38:00,31.0,15.9,30.25,NW,315,4.0,12.0,53,0.00,,,0.00,Weather View 32 v70,2013-01-21 03:38:00,
2013-01-20 22:43:00,30.0,14.9,30.25,NNW,337,1.0,12.0,53,0.00,,,0.00,Weather View 32 v70,2013-01-21 03:43:00,
2013-01-20 22:48:00,30.0,14.5,30.25,WSW,247,1.0,12.0,52,0.00,,,0.00,Weather View 32 v70,2013-01-21 03:48:00,
2013-01-20 22:53:00,30.0,14.9,30.25,NW,315,2.0,12.0,53,0.00,,,0.00,Weather View 32 v70,2013-01-21 03:53:00,
2013-01-20 22:58:00,30.0,14.9,30.26,WNW,292,1.0,12.0,53,0.00,,,0.00,Weather View 32 v70,2013-01-21 03:58:00,
2013-01-20 23:03:00,30.0,14.9,30.26,NNW,337,0.0,12.0,53,0.00,,,0.00,Weather View 32 v70,2013-01-21 04:03:00,
2013-01-20 23:08:00,29.0,14.0,30.26,WNW,292,1.0,12.0,53,0.00,,,0.00,Weather View 32 v70,2013-01-21 04:08:00,
2013-01-20 23:13:00,29.0,14.8,30.26,WNW,292,1.0,12.0,55,0.00,,,0.00,Weather View 32 v70,2013-01-21 04:13:00,
2013-01-20 23:18:00,29.0,14.8,30.27,NNW,337,0.0,12.0,55,0.00,,,0.00,Weather View 32 v70,2013-01-21 04:18:00,
2013-01-20 23:23:00,29.0,14.8,30.27,NW,315,2.0,12.0,55,0.00,,,0.00,Weather View 32 v70,2013-01-21 04:23:00,
2013-01-20 23:28:00,29.0,15.3,30.28,NW,315,0.0,10.0,56,0.00,,,0.00,Weather View 32 v70,2013-01-21 04:28:00,
2013-01-20 23:33:00,29.0,15.3,30.28,NW,315,3.0,10.0,56,0.00,,,0.00,Weather View 32 v70,2013-01-21 04:33:00,
2013-01-20 23:38:00,29.0,14.8,30.27,NNW,337,1.0,10.0,55,0.00,,,0.00,Weather View 32 v70,2013-01-21 04:38:00,
2013-01-20 23:43:00,28.0,14.7,30.27,NW,315,1.0,9.0,57,0.00,,,0.00,Weather View 32 v70,2013-01-21 04:43:00,
2013-01-20 23:48:00,28.0,14.7,30.28,NW,315,0.0,9.0,57,0.00,,,0.00,Weather View 32 v70,2013-01-21 04:48:00,
2013-01-20 23:53:00,28.0,15.1,30.28,NW,315,2.0,9.0,58,0.00,,,0.00,Weather View 32 v70,2013-01-21 04:53:00,
2013-01-20 23:58:00,28.0,15.1,30.28,NNW,337,3.0,9.0,58,0.00,,,0.00,Weather View 32 v70,2013-01-21 04:58:00,